Location: Capvern
(43.1036°N, 0.3160°E)
Time: 23:07:28
(UTC+00:00)

NOSS 3-1 (C) - Pass Details

Date: 16 October 2021
Orbit: 717 x 1491 km, 63.4° (Epoch: 25 November)

Event Time Altitude Azimuth Distance (km) Brightness Sun altitude
Rises 18:41:52 0° 179° (S) 3,137 6.1 -16.8°
Reaches altitude 10° 18:44:27 10° 166° (SSE) 2,264 5.3 -17.2°
Enters shadow 18:47:36 24° 130° (SE) 1,576 4.2 -17.8°
